ATLAS AGENA B DEB, 630

Orbit data source: Space-Track

ATLAS AGENA B DEB, 630 is space debris in LEO originally from a launch on Fri, 19 Jul 1963 UTC launched from the Air Force Western Test Range (AFWTR). Debris objects in space refer to the collection of defunct objects orbiting the Earth. Examples of debris include non-operational satellites, rocket bodies, and fragments generated from explosions, collisions, or faulty payload assembly.

Loading next visibility...
ATLAS AGENA B DEB details
Identifier
630, 1963-030C
Orbit
LEO
Last TLE update1 day ago
Origin
Flag of USUSAF SSD (US)
ManufacturerUnknown
MissionSpacecraft
Bus & MotorUnknown
Mass~10 kg wet, ~10 kg dry
Launch date (UTC)
1963-07-19 (61 years ago)
Launch vehicleUnknown
Launch site
Air Force Western Test Range (AFWTR)
Object type
Payload
Rocket body
Debris
Shape & HBRBox, 1.5 m
Radar Cross Section1.575 m², Medium (>0.1 m² and < 1m²)

Expand to show TLE details & history

TLE from 1 day ago
0 ATLAS AGENA B DEB
1 00630U 63030C   24355.07619941  .00000015  00000-0  61687-2 0  9993
2 00630  88.4191 232.8932 0043755  81.6540 278.9269  8.59858359928067
Epoch: 2024-12-20T01:49Z
Definitive object data (Epoch: 2024-12-20T01:49:43.629Z)
Latitude-0°
Longitude116.31451°
Altitude3,681.708 km
Speed6.297 km/s
True Right ascension15h 31m 34s
True Declination0° 00' 00"
Sunlit
Object was in daylight at TLE epoch
Visualization TLE readout
Latitude-69.20848°
Longitude-59.61558°
Altitude3,755.337 km
Speed6.26 km/s
Apparent Right ascension01h 45m 30s
Apparent Declination-60° 31' 03"
Sunlit
Object is in daylight
Visualization observer readout
Local Sidereal Time12:17:34
Azimuth206.174° SW
Elevation-65.314°
Doppler factor1
Orbital elements
Apogee altitude3,728.021 km
Perigee altitude3,639.967 km
Semi-major axis10,062.131 km
Eccentricity0.0043755
Inclination88.4191°
RAAN232.8932°
Arg. of periapsis81.654°
True anomaly278.43116°
Mean anomaly278.9269°
Eccentric anomaly278.67907°
Mean motion2.15035 °/min
BSTAR0.0061687
Orbital period167.41 mins
Loading maneuver chart data...
Loading historical data...
Loading historical data...
Loading historical data...
Loading historical data...
Loading historical data...
Loading historical data...
Loading historical data...

ATLAS AGENA B DEB Visibility forecast

Observer location: undefined°, undefined

Span
Click to sort rows by Start time (UTC) header in descending order
Start Az.
Max El. time (UTC)
Max El. Az.
Max El.
End time (UTC)
End Az.
30 mins2024-12-21 14:13:38.409Z121.894° SE2024-12-21 14:28:38.409Z65.643° ENE29.604°2024-12-21 14:43:38.409Z10.218° NNE
36 mins2024-12-21 16:55:38.409Z190.677° SSW2024-12-21 17:13:38.409Z275.073° WNW43.143°2024-12-21 17:31:38.409Z357.74° N
16 mins2024-12-21 19:59:38.409Z282.747° WNW2024-12-21 20:06:38.409Z306.712° NW13.925°2024-12-21 20:15:38.409Z337.382° NNW
32 mins2024-12-22 02:05:38.409Z10.96° NNE2024-12-22 02:20:38.409Z70.796° E30.917°2024-12-22 02:37:38.409Z136.28° SSE
35 mins2024-12-22 04:52:38.409Z355.126° N2024-12-22 05:09:38.409Z276.848° WNW42.279°2024-12-22 05:27:38.409Z203.9° SW
13 mins2024-12-22 07:44:38.409Z331.239° NNW2024-12-22 07:50:38.409Z310.747° NW13.525°2024-12-22 07:57:38.409Z287.376° WNW
10 mins2024-12-22 12:49:38.409Z60.279° ENE2024-12-22 12:53:38.409Z46.752° ENE12.249°2024-12-22 12:59:38.409Z26.737° NE
|